Regional Weather Roundup
Issued by NWS State College, PA

Home | Current Version | Previous Version | Text Only | Print | Product List | Glossary On
Versions: 1 2 3 4 5 6 7 8 9 10 11 12 13 14 15 16 17 18 19 20 21 22 23 24 25 26 27 28 29 30 31 32 33 34 35 36 37 38 39 40 41 42 43 44 45 46 47 48 49 50
000
ASUS41 KCTP 271210
RWRCTP

REGIONAL WEATHER ROUNDUP
NATIONAL WEATHER SERVICE STATE COLLEGE PA
800 AM EDT WED AUG 27 2014

Note: "fair" indicates few or no clouds below 12,000 feet with no
significant weather and/or obstructions to visibility.

* = STATION THAT DOES NOT REPORT PRECIPITATION /E.G. RAIN...SNOW...ETC/
    THUNDER OR FOG.

PAZ002>004-007>009-013>016-020>023-029>032-271300-
WESTERN PENNSYLVANIA

CITY           SKY/WX    TMP DP  RH WIND       PRES   REMARKS
ERIE           CLOUDY    72  67  84 N5        30.07S HAZE
MEADVILLE      CLOUDY    69  67  93 CALM      30.10S FOG
FRANKLIN*      MOSUNNY   68  64  88 SW3       30.12S
NEW CASTLE     FAIR      70  69  96 CALM      30.11S FOG
BEAVER COUNTY  SUNNY     72  66  83 CALM      30.11R
BUTLER*        SUNNY     66  63  88 CALM      30.12F
PITTSBURGH INT PTSUNNY   69  65  86 CALM      30.11R
PITTSBURGH     CLOUDY    66  62  87 SE3       30.11R
INDIANA*       PTSUNNY   66  61  82 CALM      30.16S
LATROBE        PTSUNNY   64  64 100 SW5       30.13R
WASHINGTON CO* PTSUNNY   64  63  94 CALM      30.12S
$$

PAZ004>006-010>012-017>019-024>028-033>037-041-042-045-046-049>053-271300-
CENTRAL PENNSYLVANIA

CITY           SKY/WX    TMP DP  RH WIND       PRES   REMARKS
BRADFORD       FOG       65  64  97 W5        30.12S VSB 3/4
DUBOIS         MOSUNNY   66  63  90 SW3       30.12S
CLEARFIELD     MOSUNNY   61  60  97 S3        30.12S FOG
JOHNSTOWN      SUNNY     65  57  75 SW7       30.15S
ALTOONA        SUNNY     64  60  87 CALM      30.12S
STATE COLLEGE  SUNNY     64  59  82 CALM      30.10S
WILLIAMSPORT   CLOUDY    64  60  87 CALM      30.07S
SELINSGROVE    FOG       63  62  97 CALM      30.08S VSB<1/4
FT INDIANTOWN  SUNNY     64  64 100 CALM      30.08S
CAPITAL CITY   SUNNY     65  62  90 W5        30.07S
HARRISBURG     SUNNY     69  63  81 CALM      30.07R
YORK           SUNNY     64  61  90 CALM      30.08S
$$

PAZ038>040-043-044-047-048-054-055-060>062-067>071-271300-
EASTERN PENNSYLVANIA

CITY           SKY/WX    TMP DP  RH WIND       PRES   REMARKS
SCRANTON       CLOUDY    67  60  78 CALM      30.07S
MOUNT POCONO   SUNNY     64  59  83 W5        30.11R
ALLENTOWN      SUNNY     66  62  87 SW3       30.07R
QUAKERTOWN*    SUNNY     64  63  94 CALM      30.08S
READING        SUNNY     69  62  78 CALM      30.06F
LANCASTER      SUNNY     66  62  87 CALM      30.08R FOG
COATESVILLE    SUNNY     68  66  94 CALM      30.09R
POTTSTOWN      SUNNY     66  62  87 CALM      30.08S
BLUE BELL      SUNNY     70  64  83 CALM      30.07R
DOYLESTOWN     SUNNY     66  63  90 CALM      30.06S
WILLOW GROVE   NOT AVBL
NORTH PHILA    SUNNY     72  62  71 CALM      30.08R
PHILADELPHIA   MOSUNNY   70  63  78 S5        30.07S
$$



USA.gov is the U.S. government's official web portal to all federal, state and local government web resources and services.